Regional Weather Roundup
Issued by NWS

Home | Current Version | Previous Version | Text Only | Print | Product List | Glossary Off
Versions: 1 2 3 4 5 6 7 8 9 10 11 12 13 14 15 16 17 18 19 20 21 22 23 24 25 26 27 28 29 30 31 32 33 34 35 36 37 38 39 40 41 42 43 44 45 46 47 48 49 50

000
ASUS45 KTFX 292010
RWRMT
MONTANA REGIONAL WEATHER ROUNDUP
NATIONAL WEATHER SERVICE GREAT FALLS MT
200 PM MDT SAT APR 29 2017

NOTE: "FAIR" INDICATES FEW OR NO CLOUDS BELOW 12000 FEET WITH NO
SIGNIFICANT WEATHER AND/OR OBSTRUCTIONS TO VISIBILITY.

MTZ001>007-043-292100-
WEST OF THE DIVIDE

CITY           SKY/WX    TMP DP  RH WIND       PRES   REMARKS
KALISPELL      RAIN      45  43  93 E6        30.17F FOG
MISSOULA       MOSUNNY   53  31  42 CALM      30.19F
BUTTE          PTSUNNY   50  19  29 VRB5      30.16F
MULLAN PASS    CLOUDY    37  30  75 VRB7      30.18F WCI  32
ANACONDA         N/A     52  19  28 N5        30.15F
DEER LODGE       N/A     52  27  37 CALM      30.19F
EUREKA           N/A     55  34  44 S9G16     30.13F
HAMILTON         N/A     54  21  28 N5        30.17F
LIBBY            N/A     55  28  35 W5        30.14F
$$

MTZ008-052>055-292100-
SOUTHWEST MONTANA

CITY           SKY/WX    TMP DP  RH WIND       PRES   REMARKS
BOZEMAN        MOSUNNY   51  28  41 VRB5      30.18F
DILLON         SUNNY     51  22  31 SE6       30.16F
W YELLOWSTONE  CLOUDY    41  18  38 CALM      30.18F
ENNIS          MOSUNNY   50  21  32 S8        30.22F
THREE FORKS      N/A     53  53 100 CALM      30.15F
$$

MTZ009-010-012-014-046-048-049-054-292100-
EAST SLOPES AND CENTRAL MONTANA

CITY           SKY/WX    TMP DP  RH WIND       PRES   REMARKS
CUT BANK       PTSUNNY   55  24  30 W16       30.10F
GREAT FALLS    MOSUNNY   56  29  35 SW10      30.13F
MALMSTROM AFB  PTSUNNY   52  31  45 W8        30.13F
HELENA         MOSUNNY   58  22  24 W13G20    30.15F
AUGUSTA          N/A     50  24  36 SE8       30.12F
BOWMANS CRNR   PTSUNNY   48  23  37 W5        30.11F
CHOTEAU          N/A     52  25  35 VRB6G14   30.13F
FAIRFIELD        N/A     52  24  34 S9        30.11F
POWER          PTSUNNY   49  29  44 NW14      30.12F
RAYNESFORD     PTSUNNY   51  28  41 W13       30.14F
ULM            PTSUNNY   54  34  47 NW15G23   30.13F
$$

MTZ011-013-016-021-045-047-050-051-292100-
NORTH CENTRAL MONTANA

CITY           SKY/WX    TMP DP  RH WIND       PRES   REMARKS
HAVRE          PTSUNNY   58  32  37 W14G23    30.10F
LEWISTOWN      PTSUNNY   52  26  36 W7        30.14F
N BAR RANCH      N/A     52  28  40 S16G28    30.18F
CHINOOK          N/A     57  32  38 SE8       30.12F
DENTON         LGT RAIN  49  38  67 MISG      30.11F
FORT BENTON      N/A     57  28  33 MISG      30.13F
GEYSER           N/A     52  29  40 W13G25    30.13F
GRASS RANGE    PTSUNNY   49  36  61 E9        30.11F
JUDITH GAP     SHOWER    43  31  62 SW23G38   30.16F
STANFORD       PTSUNNY   48  30  48 E5        30.13F
WINIFRED       PTSUNNY   49  28  44 SW24G30   30.14F
$$

MTZ017>020-022>027-061-062-292100-
NORTHEAST MONTANA

CITY           SKY/WX    TMP DP  RH WIND       PRES   REMARKS
GLASGOW        MOSUNNY   59  30  33 SW8       30.18F
JORDAN           N/A     57  29  34 SW9       30.18F
SIDNEY         CLOUDY    59  34  39 S8        30.21F
WOLF POINT     MOSUNNY   60  31  33 W9        30.19F
MALTA          MOSUNNY   59  34  38 S15G21    30.15F
PLENTYWOOD       N/A     57  27  30 W9        30.19F
POPLAR           N/A     59  28  31 SW10G18   30.20F
$$

MTZ028>42-056>058-292100-
SOUTHCENTRAL AND SOUTHEAST MONTANA

CITY           SKY/WX    TMP DP  RH WIND       PRES   REMARKS
BAKER          PTSUNNY   56  26  31 W6        30.24F
BILLINGS       PTSUNNY   52  32  46 S8        30.20F
LIVINGSTON     MOSUNNY   52  28  39 VRB5      30.16F
MILES CITY     MOSUNNY   58  25  28 VRB3      30.21F
BIG TIMBER     SUNNY     52  30  43 VRB7G15   30.20F
LAUREL           N/A     53  28  38 SE6       30.17F
ROUNDUP          N/A     54  29  38 SE16      30.09F
$$

REGIONAL REPORTS...DAKOTAS

CITY           SKY/WX    TMP DP  RH WIND       PRES   REMARKS
WILLISTON      PTSUNNY   63  33  32 SW14      30.21S
MINOT          MOSUNNY   63  25  23 SW9       30.20S
DICKINSON      MOSUNNY   57  19  22 S7        30.21S
BEACH          PTSUNNY   59  23  25 W8G16     30.25F
TIOGA          CLOUDY    57  27  30 SW15G22   30.21S
WATFORD CITY   PTSUNNY   57  30  35 SW9       30.21S
BISMARCK       SUNNY     61  18  18 VRB6      30.26S
GRAND FORKS    PTSUNNY   58  23  26 W5        30.30S
FARGO          SUNNY     58  19  22 VRB3      30.31R
BUFFALO SD       N/A     56  16  20 VRB5      30.19F
RAPID CITY     MOSUNNY   51  18  27 NE8       30.24F
$$

REGIONAL REPORTS...WYOMING/IDAHO/WASHINGTON

CITY           SKY/WX    TMP DP  RH WIND       PRES   REMARKS
GILLETTE       SUNNY     37  29  72 SW9       30.28S WCI  30
SHERIDAN       SUNNY     43  29  57 SE10      30.24F
BUFFALO WY     SUNNY     38  26  62 S12       30.25F WCI  30
CODY           SUNNY     45  24  43 S7        30.23F
YELLOWSTONE LA   N/A     34  17  50 CALM      30.21F
IDAHO FALLS    MOSUNNY   50  26  39 CALM      30.22F
SALMON         SUNNY     54  25  32 E3        30.16F
BOISE          SUNNY     57  29  34 NW8       30.24F
SPOKANE        PTSUNNY   57  32  38 SW18G24   30.18F
$$

REGIONAL REPORTS...ALBERTA

CITY           SKY/WX    TMP DP  RH WIND       PRES   REMARKS
EDMONTON       PTSUNNY   54  28  37 CALM      30.00F
CALGARY        PTSUNNY   54  23  30 S13       30.01F
LETHBRIDGE     PTSUNNY   57  27  30 W16G24    30.05F
MEDICINE HAT   PTSUNNY   59  34  38 SW14G21   30.05F
CARDSTON         N/A     54  27  35 W12G20      N/A
MILK RIVER       N/A     55  28  35 NW15G23     N/A
$$

REGIONAL REPORTS...SASKATCHEWAN

CITY           SKY/WX    TMP DP  RH WIND       PRES   REMARKS
SWIFT CURRENT  PTSUNNY   55  23  28 SW12G17   30.11F
REGINA         PTSUNNY   55  27  33 SW10G18   30.18F
SASKATOON      PTSUNNY   55  21  26 W10       30.13S
VAL MARIE        N/A     59  30  33 S14G22      N/A
ROCKGLEN         N/A     52  27  37 SW13G18     N/A
ASSINIBOIA       N/A     50  36  57 NW6         N/A
$$



USA.gov is the U.S. government's official web portal to all federal, state and local government web resources and services.